Preview of NWS' New Version of Forecast
This preview is not operational and should not be used for support decisions.

Regional Weather Roundup (RWR)

Issued by National Weather Service (NWS)

                            
000
ASUS45 KBOU 180310
RWRCO 

WEATHER ROUNDUP FOR COLORADO
NATIONAL WEATHER SERVICE DENVER/BOULDER CO
800 PM MST SUN FEB 17 2019

NOTE: "FAIR" INDICATES FEW OR NO CLOUDS BELOW 12000 FEET WITH NO
SIGNIFICANT WEATHER AND/OR OBSTRUCTIONS TO VISIBILITY.

COZ001>005-013-030-031-180400-
...NORTHWEST COLORADO...
  
CITY           SKY/WX    TMP DP  RH WIND       PRES   REMARKS
CRAIG          FAIR      12   6  77 SE5       29.84S WCI   4          
HAYDEN         FAIR      12   5  73 S3        29.84R                  
MEEKER         FAIR      21  10  62 CALM      29.80R                  
RANGELY        FAIR      24  12  60 E17G24    29.81S WCI  10          
RABBIT EARS PA MOCLDY     5   3  92 S5        29.72R WCI  -4          
STEAMBOAT SPGS FAIR      12   4  70 CALM      29.82R                  
WALDEN         FAIR       0  -6  78 S3        29.82S                  
$$

COZ006>008-011-180400-
...WEST CENTRAL VALLEYS...
  
CITY           SKY/WX    TMP DP  RH WIND       PRES   REMARKS
GRAND JUNCTION CLOUDY    33  20  58 CALM      29.79R                  
MONTROSE       CLOUDY    29  10  45 SE17      29.82S WCI  17          
EAGLE          MOCLDY    19   9  65 NE5       29.83R WCI  12          
RIFLE          FAIR      24  12  60 SE8       29.80S WCI  15          
DELTA          MOCLDY    33  18  53 SE6       29.81S WCI  28          
NUCLA          LGT SNOW  30  23  74 CALM      29.82R                  
$$

COZ017>023-064>068-180400-
...SOUTHWEST COLORADO...
  
CITY           SKY/WX    TMP DP  RH WIND       PRES   REMARKS
DURANGO        CLOUDY    21  20  96 E7        29.81S WCI  12          
CORTEZ         LGT SNOW  26  22  84 SW9       29.83R VSB 1   WCI  17  
PAGOSA SPRINGS LGT SNOW  21  21 100 CALM      29.81S VSB 1            
TELLURIDE      FAIR      18   9  68 E3        29.74S                  
WOLF CREEK PAS CLOUDY     3   1  92 S3        29.76R                  
$$

COZ009-010-012-014-032>034-037-058>063-180400-
...CENTRAL COLORADO...
  
CITY           SKY/WX    TMP DP  RH WIND       PRES   REMARKS
ASPEN          MOCLDY    19   4  51 SE9       29.76R WCI   8          
BUENA VISTA    CLOUDY    18   4  53 W5        29.80R WCI  11          
COPPER MTN     CLOUDY     7  -6  56 SE9       29.68S WCI  -7          
BERTHOUD PASS  CLOUDY    -4 -15  59 MISG      29.67S                  
COTTONWOOD PAS CLOUDY    16  -6  38 CALM      29.75S                  
GUNNISON       CLOUDY     7  -1  70 NE5       29.83S WCI  -2          
GRANBY         MOCLDY     8  -1  66 CALM      29.81R                  
KREMMLING      FAIR       7   3  85 CALM      29.84R                  
LEADVILLE      CLOUDY     6  -6  57 CALM      29.73R                  
MONARCH PASS   CLOUDY     3  -4  72 MISG      29.80S                  
SALIDA         CLOUDY    25   2  37 SW9       29.88S WCI  15          
SUNLIGHT       CLOUDY     5   1  85 MISG      29.75S                  
WILKERSON PASS LGT SNOW   5   1  85 E8        29.77R WCI  -8          
$$

COZ069>075-180400-
...SAN LUIS VALLEY/SANGRE DE CRISTO MOUNTAINS...
  
CITY           SKY/WX    TMP DP  RH WIND       PRES   REMARKS
ALAMOSA        CLOUDY    20   8  60 NE3       29.82S                  
DEL NORTE      MOCLDY    17  10  75 NW7       29.82S WCI   7          
LA VETA PASS   NOT AVBL                                               
SAGUACHE       FAIR      18   5  57 CALM      29.82S                  
$$

COZ035-036-038>040-180400-
...NORTHERN COLORADO FRONT RANGE...
  
CITY           SKY/WX    TMP DP  RH WIND       PRES   REMARKS
DENVER INTL AP FLURRIES  19   8  62 NE14      30.01R WCI   6          
AURORA         FLURRIES  19  11  71 NE13      30.00R WCI   6          
FRONT RANGE AP CLOUDY    21  12  68 NE13      30.02R WCI   9          
ERIE MUNI ARPT FLURRIES  20  12  71 N6        30.09R WCI  12          
BOULDER MUN AP LGT SNOW  19  14  79 NE6       30.03R WCI  11          
CENTENNIAL     LGT SNOW  19  11  70 NE8       29.98R WCI   9          
BROOMFIELD     LGT SNOW  19  12  73 N8        30.01R WCI   9          
FORT COLLINS   FLURRIES  18  12  77 NE6       30.06R WCI  10          
LONGMONT       CLOUDY    22  12  65 NE6       30.07R WCI  14          
$$

COZ041-046-047-076>085-087-088-180400-
...PIKES PEAK/PALMER DIVIDE AND SOUTHERN FOOTHILLS...
  
CITY           SKY/WX    TMP DP  RH WIND       PRES   REMARKS
COLO. SPRINGS  MOCLDY    22  16  78 NE13      29.93R WCI  10          
A. F. ACADEMY  MOCLDY    23  14  68 CALM      29.90R                  
SCHRIEVER AFB  NOT AVBL                                               
CHEYENNE MTN   LGT SNOW  20  16  86 E6        29.86R WCI  12          
ELLICOTT       NOT AVBL                                               
FALCON         CLOUDY    18  15  90 NE14      29.92R WCI   4          
FORT CARSON    MOCLDY    23  14  66 E8        29.93R WCI  14          
LIMON          FAIR      16   7  67 NE13      29.98R WCI   2          
MONUMENT HILL  CLOUDY    14  10  85 NE9       29.91R WCI   2          
CANON CITY     NOT AVBL                                               
WALSENBURG     NOT AVBL                                               
TRINIDAD       FAIR      28   6  39 S7        29.85R WCI  21          
$$

COZ042>045-048>051-090-091-180400-
...NORTHEAST COLORADO...
  
CITY           SKY/WX    TMP DP  RH WIND       PRES   REMARKS
GREELEY ARPT   NOT AVBL                                               
AKRON          FAIR       8   2  76 NE10      30.06R WCI  -6          
BURLINGTON     FAIR      13   3  64 NE14      30.06R WCI  -2          
WRAY           FAIR      10   3  72 N10       30.14R WCI  -3          
YUMA           FAIR       9   1  72 N12       30.10R WCI  -6          
STERLING       FAIR      12   3  67 NE8       30.11R WCI   1          
HOLYOKE        FAIR       9   1  72 N6        30.16R WCI  -1          
FORT MORGAN      N/A     13   0  56 NE10      30.09R WCI   0          
$$

COZ086-089-092>099-180400-
...SOUTHEAST COLORADO...
  
CITY           SKY/WX    TMP DP  RH WIND       PRES   REMARKS
PUEBLO         MOCLDY    30  18  60 E18       29.96R WCI  18          
LA JUNTA       FAIR      25  16  68 E15G24    29.97R WCI  13          
LAMAR          FAIR      23  11  60 MISG      30.01R                  
SPRINGFIELD      N/A     19  14  81 E12       29.99R WCI   7          
$$